Track KIKU 1 (ETS 1) now! 10-day predictions KIKU 1 (ETS 1) is classified as:
1 08197U 75082A 21022.88592346 -.00000105 00000-0 27171-4 0 9998 2 08197 46.9870 232.8372 0086138 313.3008 59.9700 13.59519450254195